DECAYED

STARLINK-2540, 48290 (Decayed)

Orbit data source: Space-Track

STARLINK-2540, 48290 was a payload satellite owned by SpaceX/Seattle (US) in LEO that was launched on Thu, 29 Apr 2021 UTC via an FALCON 9 launch vehicle from the Air Force Eastern Test Range (AFETR). Payload-class satellites include a variety of spacecraft equipped with specific instruments for various scientific and technological missions. These include communications satellites like Starlink; space stations such as the ISS; scientific satellites like the Hubble; Earth observation satellites from companies like Planet Labs, Umbra, and HawkEye 360; GPS; miniature CubeSats for education and research; and military/defense satellites.

Not visible in the next 10 days
Identifier
48290, 2021-036Q
Orbit
Decayed
Country
Flag of USUS
Related business
Manufacturer
SpaceX/Seattle
Mission
Decayed Commercial Communications
Bus & Motor
STARLINK, Unknown motor
Mass
260 kg wet, ~248 kg dry
Launch date (UTC)
2021-04-29 (5 years ago)
Launch vehicle
FALCON 9
Launch site
Air Force Eastern Test Range (AFETR)
Object type
Payload
Rocket body
Debris
Shape & HBR
Box + 1 Pan, 10.1 m
Radar Cross Section
13.562 m², Large (>1 m²)

Expand to show TLE details & history
Last TLE update: 3 weeks ago

TLE from 3 weeks ago
0 STARLINK-2540
1 48290U 21036Q   26013.73557935  .13297263  12472-4  33760-3 0  9996
2 48290  53.0304 292.7660 0004390 227.1640 132.9040 16.45769045260521
Epoch: 2026-01-13T17:39Z
TLE epoch observation values (Epoch: 2026-01-13T17:39:14.055Z)
Latitude
-0.00007°
Longitude
-85.25626°
Altitude
153.382 km
Speed
7.814 km/s
True Right ascension
19h 31m 03s
True Declination
0° 00' 00"
Sunlit
Object was in daylight at epoch
Visualization orbit readout
Latitude
Unknown
Longitude
Unknown
Altitude
Unknown
Speed
Unknown
Apparent Right ascension
Unknown
Apparent Declination
Unknown
Sunlit
N/A
Visualization observer readout
Local Sidereal Time
13:34:30
Azimuth
Unknown
Elevation
Unknown
Doppler factor
Unknown
Orbital elements
Apogee altitude
153.658 km
Perigee altitude
147.925 km
Semi-major axis
6,528.929 km
Eccentricity
0.00044
Inclination
53.0304°
RAAN
292.766°
Arg. of periapsis
227.164°
True anomaly
132.94083°
Mean anomaly
132.904°
Eccentric anomaly
132.92242°
Mean motion
4.11415 °/min
Orbital period
87.5 mins
BSTAR
0.0003376
Loading maneuver chart data...
Computing Atmospheric mass density...
Loading historical data...
Loading historical data...
Loading historical data...
Loading historical data...
Loading historical data...
Loading historical data...
Loading historical data...

Documentation

Showing up to 5 results
|